Location: La Comballaz
(46.3780°N, 7.0817°E)
Time: 12:03:46
(UTC+00:00)

Cosmos 2237 Rocket - Pass Details

Date: 09 April 2020
Orbit: 834 x 851 km, 71.0° (Epoch: 25 May)

Event Time Altitude Azimuth Distance (km) Brightness Sun altitude
Rises 23:36:35 0° 340° (NNW) 3,410 6.2 -35.6°
Reaches altitude 10° 23:39:47 10° 358° (N) 2,475 5.4 -35.6°
Maximum altitude 23:43:47 19° 43° (NE) 1,906 4.4 -35.5°
Enters shadow 23:45:50 16° 70° (ENE) 2,072 4.4 -35.5°
